GFSSW_850_spd_210.txt.gz
Wind_Speed
8 7 8 9 9 7 5 4 3 3 4 4 4 4 6 7 9 10 13 9 8 11 4 6 7 8 10 10 10 8 3 2 3 1 7 16 9 16 23 28 3 7 18 21 27
9 9 9 9 8 7 4 3 2 2 2 3 2 3 5 6 8 9 4 4 7 2 10 6 7 8 6 5 3 4 4 8 7 4 6 2 9 16 14 20 15 13 13 14 17
10 10 9 9 8 7 5 3 2 0 1 1 1 3 4 6 4 5 5 3 3 4 6 10 9 10 6 9 6 3 5 4 14 11 15 7 7 15 7 6 10 9 5 6 10
12 10 10 9 8 7 6 5 3 2 2 3 3 4 4 6 1 6 10 7 7 8 9 10 7 2 3 3 9 3 11 6 8 26 7 6 10 13 10 7 4 5 3 1 2
13 12 11 10 9 9 9 8 7 6 5 5 4 4 5 6 3 10 6 1 8 11 14 12 8 5 3 4 5 6 8 19 23 21 15 16 14 19 17 12 1 1 1 5 7
14 14 14 14 13 12 11 9 7 6 5 4 3 4 6 3 3 10 7 5 4 1 6 11 6 2 13 7 4 7 14 21 27 27 13 10 8 7 34 21 11 10 9 9 4
13 14 13 12 11 10 9 7 6 6 4 3 4 7 8 4 2 5 10 9 6 7 4 11 11 17 8 7 7 5 4 5 6 19 8 14 2 7 17 16 27 7 12 10 5
9 9 9 8 9 10 10 10 9 7 4 3 6 11 7 2 3 7 8 12 11 4 6 6 10 6 8 7 7 5 4 1 4 4 7 6 12 7 12 12 17 14 13 6 5
6 6 6 6 8 9 10 10 9 6 4 5 7 7 5 3 3 5 7 7 8 9 4 5 8 3 4 4 5 6 3 5 7 8 6 8 9 10 21 10 14 20 12 15 22
6 5 6 6 7 9 10 11 7 5 5 9 10 8 4 5 5 6 4 4 4 4 4 3 4 4 5 5 3 5 4 4 5 8 5 8 7 6 3 11 17 13 18 24 25
10 6 6 7 7 8 8 12 8 2 9 13 16 13 16 7 1 3 6 3 2 5 1 5 3 5 10 7 6 5 6 5 13 7 5 1 4 4 4 7 10 10 31 29 26
12 9 7 7 9 7 9 11 8 11 11 19 18 20 18 7 4 6 7 4 4 5 1 5 6 13 8 8 7 9 11 9 7 7 7 5 2 3 6 5 10 20 29 31 27
14 11 8 7 7 6 7 9 12 10 5 16 11 11 7 4 3 8 5 5 7 4 7 8 14 5 9 7 6 2 5 1 4 5 7 5 8 7 5 2 10 28 31 28 23
16 11 9 6 4 6 6 10 7 11 4 6 4 6 12 4 2 4 6 3 4 4 4 4 5 3 7 6 4 4 3 2 4 5 1 4 4 7 6 5 13 24 31 26 23
19 12 9 6 7 5 10 9 6 4 2 4 4 6 5 7 7 5 2 1 2 5 6 5 5 6 8 3 3 4 4 1 1 4 3 1 4 12 3 8 10 12 12 18 24
21 13 7 7 4 7 12 10 6 4 3 2 7 6 2 4 6 9 1 2 6 5 6 2 2 4 2 4 4 2 2 6 5 4 4 7 5 11 7 8 17 25 29 28 28
22 14 8 8 5 8 9 9 5 3 4 3 5 5 6 3 4 4 6 6 3 5 6 6 3 2 6 6 7 11 7 4 4 4 4 2 11 0 7 17 18 19 30 28 23
25 13 7 6 4 4 9 4 1 4 4 5 2 2 4 6 1 3 3 4 7 5 3 5 5 6 5 3 1 3 6 5 2 1 4 6 4 1 4 15 19 24 25 25 26
25 11 4 9 6 1 2 3 5 4 3 6 7 5 5 2 5 5 5 3 4 5 5 4 3 5 2 2 4 4 3 2 5 4 4 2 3 12 4 16 30 28 34 34 30
26 12 2 11 8 5 4 4 4 2 4 5 5 5 5 6 5 4 3 6 3 7 4 2 3 3 6 5 6 5 2 6 4 2 2 3 5 3 5 13 16 21 24 26 24
15 6 5 11 10 5 3 6 4 2 4 4 3 4 3 3 3 4 4 3 5 3 11 2 3 7 4 5 3 5 3 6 4 4 4 2 3 8 11 11 12 18 22 23 25
12 4 5 12 2 1 3 5 3 3 3 3 4 5 3 6 4 5 3 2 2 2 3 2 4 2 3 8 2 3 5 4 5 2 2 4 0 6 10 16 19 19 23 25 24
19 7 1 10 1 3 5 4 3 4 4 3 5 4 3 3 4 6 4 3 3 3 3 1 3 3 9 7 7 5 6 3 4 3 5 6 4 6 8 14 17 20 23 22 21
7 4 7 5 2 2 3 3 2 7 5 6 3 5 6 6 6 4 3 2 5 7 6 5 3 5 5 4 4 5 8 6 5 4 3 4 5 6 7 6 11 19 18 15 21
7 3 5 4 6 7 2 3 3 3 4 8 7 7 4 4 4 4 6 4 6 5 3 4 2 2 1 3 4 3 8 10 4 1 5 4 5 1 4 8 17 20 20 23 29
6 6 8 9 14 7 4 6 4 3 4 3 7 9 10 5 3 2 1 2 1 3 2 3 1 3 4 4 6 2 8 5 7 5 10 10 5 3 4 9 15 13 20 25 30
10 4 4 7 9 1 2 3 2 3 10 9 7 5 6 1 4 6 5 3 4 4 2 3 3 3 3 5 5 5 7 6 5 7 3 3 1 1 4 14 20 13 23 30 26

GFSSW_850_spd_216.txt.gz
Wind_Speed
9 8 8 8 8 7 5 4 3 2 1 2 3 4 5 6 7 7 7 3 4 6 7 2 2 3 7 3 4 3 4 1 3 5 2 5 7 14 5 11 11 11 4 5 10
11 10 9 8 8 7 6 5 3 2 2 3 3 4 4 5 4 5 6 2 2 2 3 3 1 3 5 5 5 4 4 8 3 1 2 7 2 2 10 1 6 19 14 16 18
14 12 11 11 10 9 8 7 6 4 4 4 3 4 5 7 4 5 6 4 2 3 1 3 2 3 4 4 4 4 6 5 5 3 4 1 7 7 7 4 9 17 15 17 21
17 17 16 15 15 14 12 10 8 7 6 5 4 5 7 4 2 7 6 2 4 3 1 2 3 3 3 2 4 3 6 7 2 3 6 3 4 11 14 7 6 5 9 15 21
17 17 16 16 15 14 13 12 10 7 5 5 4 7 8 3 4 6 11 11 2 3 4 2 4 4 2 2 2 4 4 8 10 10 15 9 4 9 21 32 17 17 6 13 14
14 14 14 13 13 13 12 11 9 7 5 4 5 8 6 2 2 3 5 7 7 6 1 8 3 3 1 2 3 6 5 6 8 10 11 6 10 10 15 35 17 22 21 7 4
12 11 11 12 12 12 12 11 9 6 4 5 7 12 4 1 3 4 5 7 8 6 4 5 4 3 3 2 4 4 3 3 2 3 4 6 1 8 22 25 25 14 27 21 34
11 10 10 10 11 12 13 13 11 5 4 6 10 13 5 3 5 1 3 6 7 6 0 1 4 4 2 3 5 4 5 3 5 2 4 8 8 10 31 12 6 27 23 17 17
13 10 9 10 10 12 14 16 7 4 6 8 11 8 4 7 4 1 2 4 6 4 3 1 1 1 1 4 5 6 1 1 6 3 2 0 8 9 21 28 19 13 16 11 9
17 12 10 10 10 11 13 13 10 5 5 10 4 4 1 11 7 4 1 2 1 2 4 2 2 3 4 5 2 3 2 2 2 3 4 3 10 9 15 12 25 22 20 21 22
22 15 11 9 9 9 11 10 9 3 16 9 11 10 13 7 6 2 2 1 1 1 2 4 4 5 6 4 3 1 1 3 4 7 3 3 8 12 26 12 14 23 24 27 24
24 19 12 9 7 6 7 6 9 7 8 13 9 12 12 9 4 3 4 2 1 1 1 5 4 6 2 4 5 4 3 5 6 2 3 7 9 12 27 17 20 22 25 27 25
26 21 14 8 4 3 3 8 11 10 2 8 3 5 4 4 3 1 4 2 1 1 2 5 5 2 5 4 4 3 5 4 5 4 3 2 5 16 13 28 29 30 28 31 31
27 22 17 8 2 1 3 8 9 7 4 5 2 2 5 1 3 2 3 1 2 2 4 3 5 3 5 4 4 2 3 2 3 3 2 3 4 13 10 16 23 25 30 31 32
29 23 18 7 5 1 2 5 5 4 3 2 2 0 3 5 1 4 1 1 1 3 4 3 7 5 6 3 1 2 3 4 3 4 3 10 6 7 7 13 14 20 26 31 30
29 26 17 8 8 5 2 3 3 5 3 3 2 1 2 0 1 3 3 3 4 4 5 2 4 3 1 2 4 2 5 7 5 3 4 5 5 9 5 5 10 19 24 28 29
31 25 15 7 4 5 2 2 4 3 4 4 2 2 2 1 4 4 4 7 3 4 6 7 5 6 4 3 6 7 6 3 3 4 3 2 7 2 6 11 12 14 20 25 24
30 23 13 5 10 3 1 4 2 3 4 3 3 3 3 3 3 3 3 4 5 4 3 3 6 6 8 2 1 4 4 5 3 3 3 6 3 1 5 13 14 17 18 22 22
29 17 3 3 9 6 5 3 6 5 3 4 2 4 5 3 5 5 3 2 1 2 5 2 3 5 4 3 2 1 4 3 6 3 4 4 3 3 4 8 12 15 18 17 18
27 11 4 9 8 3 4 4 4 4 3 2 3 1 2 5 4 4 1 1 1 5 1 3 2 2 5 4 7 4 3 3 4 3 2 1 4 4 4 3 6 14 15 14 16
17 4 7 8 6 2 3 6 5 7 4 2 2 3 2 3 3 2 1 1 3 3 7 3 3 6 3 5 2 4 3 6 5 4 5 4 5 5 7 4 3 10 13 13 17
14 3 8 8 3 2 2 4 4 4 3 3 4 3 3 2 3 2 3 1 3 2 3 2 4 1 1 3 3 3 3 3 5 2 1 3 4 5 7 5 4 10 13 12 17
17 6 7 6 2 3 6 5 4 3 4 2 3 4 5 3 4 3 3 4 2 4 4 4 3 3 7 6 5 5 4 4 4 3 3 4 3 4 6 1 4 12 18 16 21
8 4 5 7 6 2 4 4 2 6 5 7 4 5 4 4 5 3 2 5 5 6 7 4 3 5 6 4 2 3 4 3 4 3 2 4 5 4 3 3 9 16 20 20 24
7 2 3 4 3 3 2 3 2 2 4 8 4 4 4 3 3 2 2 2 5 3 3 4 3 2 3 3 1 2 2 3 2 2 3 0 3 5 4 3 10 13 15 19 25
6 5 5 4 9 5 0 2 2 3 2 2 6 1 3 5 5 7 4 2 2 4 3 3 2 1 2 2 5 2 3 6 5 3 5 4 1 3 3 5 10 14 14 21 26
7 5 4 4 4 2 2 5 1 1 7 5 9 4 5 4 5 5 3 6 5 6 3 3 5 3 3 3 2 3 2 2 2 1 4 3 3 5 4 6 12 12 12 17 24

GFSSW_850_spd_219.txt.gz
Wind_Speed
11 10 9 9 9 8 6 4 2 1 1 1 2 2 3 3 4 3 3 0 1 5 6 4 4 5 10 6 5 5 2 5 4 3 3 4 7 6 3 1 3 1 3 3 7
14 13 12 11 11 10 8 6 5 3 2 2 2 3 3 4 7 9 7 2 1 2 4 6 6 7 5 6 4 3 4 6 2 3 2 5 4 4 2 3 1 1 3 4 9
19 18 17 16 15 13 11 9 7 5 4 4 4 5 5 3 7 5 4 1 2 2 2 5 5 6 3 4 4 4 6 4 4 6 2 4 3 3 3 3 7 6 7 8 11
18 17 17 17 16 15 14 12 10 7 6 5 6 7 5 4 3 7 8 2 5 3 3 5 5 4 3 5 2 4 4 5 3 6 5 2 6 11 5 0 7 11 14 16 13
14 14 15 15 15 14 13 11 9 7 5 5 7 9 5 5 5 7 10 11 5 1 3 5 5 4 4 2 3 4 3 7 7 7 8 6 13 9 14 19 18 13 12 15 14
12 11 11 12 13 13 13 12 10 6 5 6 8 10 3 4 4 5 5 7 7 6 2 7 4 4 4 2 3 1 3 5 4 6 3 8 11 10 17 17 15 19 14 10 9
12 10 9 10 11 12 13 12 10 5 5 6 10 13 2 2 3 3 5 6 5 5 6 6 5 2 1 3 1 0 3 2 2 3 2 7 7 16 22 16 22 26 16 7 8
16 11 9 9 10 11 13 15 6 2 4 7 12 9 2 3 3 3 3 6 7 5 5 3 2 0 1 0 2 1 1 3 3 3 4 4 6 9 9 13 30 24 22 6 11
21 15 11 9 8 10 13 13 5 2 4 8 7 5 3 5 5 2 3 3 4 6 6 2 3 2 1 2 3 3 2 1 3 2 1 3 6 24 21 12 25 23 7 8 10
23 18 13 9 7 8 11 8 8 2 2 7 2 2 3 6 4 1 3 3 3 6 7 2 1 2 2 2 4 3 2 2 3 2 5 9 12 17 25 5 2 19 20 20 24
24 20 16 11 7 6 6 6 6 2 10 6 6 5 6 4 3 2 3 3 3 2 2 2 4 6 5 2 2 3 3 4 5 3 5 11 15 18 25 20 22 23 26 26 26
25 22 18 11 6 4 3 3 5 5 6 9 9 10 7 4 0 2 4 3 2 2 2 2 4 3 4 2 6 5 4 6 4 4 9 18 19 20 24 21 23 25 25 23 23
26 24 18 10 5 2 3 4 6 7 2 5 2 4 1 3 1 1 6 3 1 1 2 1 3 2 3 3 6 4 6 4 5 7 8 9 16 16 17 23 25 27 23 23 23
26 24 20 9 1 3 4 5 5 4 2 2 2 2 4 3 2 3 5 1 1 2 3 1 4 4 4 4 4 2 4 2 1 5 4 3 5 11 10 14 22 22 22 21 22
27 24 20 9 3 4 2 3 3 2 1 2 2 2 3 2 3 3 2 1 2 3 2 3 4 4 5 3 2 2 0 2 2 3 3 5 4 4 2 11 12 15 18 19 19
28 23 18 10 6 7 3 1 3 1 2 1 2 4 4 2 2 2 3 4 3 3 4 2 2 3 2 2 3 6 1 4 3 1 6 5 1 4 1 2 7 10 13 14 15
27 20 14 5 4 10 5 1 1 3 1 2 2 3 4 2 3 3 4 5 3 1 4 3 3 3 5 1 3 2 0 3 4 4 2 2 1 5 5 6 6 7 10 11 12
27 16 7 5 13 8 7 2 4 2 3 1 1 4 3 2 2 2 3 3 5 2 2 1 3 6 8 3 2 4 1 3 5 3 3 1 4 5 8 9 8 7 3 7 11
27 7 4 4 14 9 6 2 3 4 2 2 2 3 2 2 3 3 3 2 2 2 1 1 1 1 6 4 2 3 1 2 5 1 3 4 4 5 9 8 6 5 4 6 10
22 5 8 10 12 8 3 3 3 3 4 1 1 0 3 2 3 2 3 1 2 2 2 3 1 2 3 1 9 2 5 2 1 3 4 3 4 4 15 10 4 4 6 8 11
14 3 7 10 7 3 2 4 4 7 5 1 2 3 3 3 3 2 3 2 2 3 3 2 0 1 2 6 4 0 1 4 2 2 3 2 2 7 16 12 6 5 7 8 12
13 1 7 9 1 1 2 3 4 4 1 1 3 3 2 2 3 2 3 2 5 1 2 2 2 1 2 1 2 4 3 2 2 3 1 2 1 3 11 9 4 4 7 7 10
17 6 6 7 1 0 3 3 3 3 3 1 2 2 3 3 3 2 3 3 1 2 3 4 2 1 2 3 2 3 3 3 3 1 3 3 1 5 6 5 1 5 8 10 13
8 4 5 7 6 2 4 2 2 2 2 3 3 3 3 2 4 5 4 3 3 5 6 4 2 2 3 1 2 1 2 1 1 1 1 3 2 8 8 4 2 7 10 12 14
6 2 3 3 3 2 1 2 3 1 2 2 3 2 4 3 2 3 3 4 4 2 4 2 2 2 2 1 1 1 3 3 2 1 3 2 1 5 8 2 4 8 11 13 15
6 5 4 5 5 3 1 2 2 1 3 0 5 3 2 4 3 7 6 3 2 3 2 1 3 3 2 2 1 2 3 5 4 4 5 3 3 4 4 1 5 8 10 12 16
6 6 4 3 3 2 1 2 1 4 4 3 10 6 6 5 7 8 6 6 4 4 3 2 4 3 2 1 1 4 4 2 2 2 2 2 3 8 4 4 7 9 7 13 15

GFSSW_850_spd_222.txt.gz
Wind_Speed
13 12 11 10 9 7 5 3 1 1 2 2 2 2 2 2 2 1 0 4 4 7 6 3 4 7 10 12 9 8 10 11 9 9 3 3 4 7 2 3 4 6 7 9 10
18 17 16 14 12 10 8 5 3 2 2 1 1 0 1 1 8 2 0 2 3 4 3 6 6 8 13 14 11 13 11 13 5 1 2 3 2 6 3 6 8 8 9 9 8
16 16 16 15 15 14 11 8 6 4 3 3 4 3 1 6 4 2 3 1 4 4 3 4 5 8 12 11 13 17 14 6 6 4 3 4 6 1 1 10 11 12 13 10 3
13 14 14 13 13 13 12 9 7 5 4 6 5 6 3 6 1 3 4 4 5 5 2 5 7 9 10 11 10 12 18 7 10 7 6 7 8 9 4 2 6 8 10 11 12
10 10 11 11 12 11 11 10 7 4 5 5 7 8 5 3 7 6 10 9 5 4 4 4 7 6 8 9 10 13 7 12 11 9 10 5 10 13 11 12 12 4 8 10 14
10 9 8 9 10 10 11 10 7 3 4 5 8 7 4 5 4 4 6 7 2 2 5 5 3 2 4 5 11 5 10 12 11 12 6 11 13 7 13 15 14 13 1 10 14
15 10 8 7 8 9 11 12 4 1 3 5 9 6 1 5 3 2 4 1 2 4 6 4 3 4 4 7 3 4 10 12 13 12 5 7 10 16 14 11 16 17 10 12 14
20 15 10 8 7 8 11 11 2 1 3 6 7 5 4 4 4 2 2 2 5 7 5 2 2 1 3 2 6 10 7 11 11 9 6 10 4 12 11 10 16 12 7 11 17
22 18 14 9 7 6 8 6 4 3 4 7 3 1 7 5 4 2 3 2 6 7 5 2 1 1 6 10 8 7 6 8 9 7 1 9 3 15 11 14 15 4 12 14 18
21 19 16 11 7 6 6 6 6 2 3 5 1 3 4 4 2 3 4 4 3 7 5 4 4 7 6 8 6 6 6 5 5 8 1 11 9 12 14 3 13 14 14 16 19
21 20 17 12 7 5 2 4 3 1 6 6 3 4 2 1 1 4 5 5 6 6 8 5 8 7 3 1 7 6 6 5 4 5 8 10 12 13 13 15 14 14 15 17 22
22 20 18 13 5 4 2 2 2 3 4 6 7 7 6 3 5 6 6 6 7 5 4 8 9 3 4 5 7 11 10 11 7 4 10 12 16 18 21 18 13 16 14 17 21
22 20 18 13 4 4 5 2 3 6 5 3 4 4 3 6 2 6 7 3 3 4 3 6 7 2 6 8 8 9 11 6 8 9 11 16 11 11 13 14 14 15 15 16 20
23 19 16 10 1 5 5 1 3 5 5 8 8 6 6 4 4 3 4 3 4 3 2 3 4 4 7 4 7 5 1 3 6 12 11 15 3 7 7 11 11 12 13 16 17
25 20 14 8 4 4 6 1 2 3 5 9 9 5 5 5 9 4 3 4 2 3 6 6 2 2 2 4 4 6 2 3 4 9 7 14 10 10 10 4 6 8 11 13 13
27 21 11 6 7 9 6 1 3 6 3 9 8 10 11 8 4 7 4 1 1 3 2 5 3 3 4 1 2 4 5 7 8 10 11 4 8 10 8 7 5 3 7 9 11
28 20 7 4 5 12 8 3 5 6 4 8 10 9 13 8 7 5 5 3 2 4 4 5 3 4 4 7 6 7 7 9 8 9 7 3 7 8 6 8 9 4 4 7 10
29 15 3 8 11 13 10 5 6 1 5 3 3 7 10 10 5 6 7 6 3 4 2 3 8 0 5 5 8 5 7 8 10 10 5 4 4 5 7 9 11 6 1 5 8
25 3 4 7 17 12 11 7 3 2 2 2 6 10 9 8 4 8 5 2 2 1 4 3 2 4 4 3 4 2 7 7 9 7 10 2 5 6 10 10 10 6 2 2 6
19 4 5 9 14 8 7 4 4 2 4 4 7 5 10 10 9 7 9 2 4 1 2 3 5 2 2 4 2 6 3 5 7 7 10 5 4 2 15 14 11 11 8 2 3
9 2 2 10 9 8 6 3 3 2 4 3 3 4 2 5 7 6 4 5 1 3 1 1 3 5 6 1 7 4 8 4 5 5 9 10 2 7 9 13 11 7 3 1 5
8 3 5 8 7 2 4 1 2 4 3 4 2 2 3 3 5 5 6 2 1 2 3 2 3 7 5 3 2 2 4 5 6 8 4 7 5 4 7 12 8 5 1 4 7
11 4 5 8 5 6 2 4 4 3 2 4 4 1 2 4 3 4 4 3 2 1 3 4 2 5 4 6 6 4 1 1 1 3 10 9 2 5 9 10 7 2 3 6 9
6 3 1 1 2 4 2 3 4 1 3 2 2 3 6 5 1 5 6 3 3 4 4 1 2 6 7 5 4 4 4 2 4 3 10 7 5 8 9 9 7 1 5 7 8
5 3 2 2 4 5 2 2 5 5 3 4 4 7 5 3 5 5 5 8 6 5 2 2 6 5 3 2 4 6 6 6 9 6 6 4 4 3 8 6 2 2 6 8 10
5 4 4 8 7 6 3 5 6 4 3 7 6 6 5 4 4 4 6 6 6 7 4 2 3 5 7 4 6 8 5 4 3 2 1 2 3 4 7 4 2 5 8 9 12
4 4 3 3 3 5 2 3 3 3 2 2 4 6 6 6 6 7 5 3 1 4 6 4 2 2 5 1 5 8 8 6 1 2 3 5 8 7 5 2 4 7 5 8 10